GEFSSE_con_maxscp_024.txt.gz
SCP
0 0 1 1 1 1 1 1 1 1 1 1 1 1 1 1 1 1 1 1 1 1 1 1 1 1 0 0 0 0 0 0 0 0 0 0 0 0 0 0 0 0 0
0 0 0 1 0 1 1 1 1 1 1 1 1 1 1 1 1 1 1 1 1 1 1 1 0 0 0 0 0 0 0 0 0 0 0 0 0 0 0 0 0 0 0
0 0 0 0 0 0 0 0 0 1 0 0 1 1 1 1 1 1 1 1 1 0 0 0 0 0 0 0 0 0 0 0 0 0 0 0 0 0 0 0 0 0 0
0 0 0 0 0 0 0 0 0 0 0 0 0 1 1 1 1 1 1 1 0 0 0 0 0 0 0 0 0 0 0 0 0 0 0 0 0 0 0 0 0 0 0
0 0 0 0 0 0 0 0 0 0 0 0 0 0 0 1 1 1 1 1 0 0 0 0 0 0 0 0 0 0 0 0 0 0 0 0 0 0 0 0 0 0 0
0 0 0 0 0 0 0 0 0 0 0 0 0 0 0 0 0 1 1 0 0 0 0 0 0 0 0 0 0 0 0 0 0 0 0 0 0 0 0 0 0 0 0
0 0 0 0 0 0 0 0 0 0 0 0 0 0 0 0 0 0 0 0 0 0 0 0 0 0 0 0 0 0 0 0 0 0 0 0 0 0 0 0 0 0 0
0 0 0 0 0 0 0 0 0 0 0 0 0 0 0 0 0 0 0 0 0 0 0 0 0 0 0 0 0 0 0 0 0 0 0 0 0 0 0 0 0 0 0
0 0 0 0 0 0 1 1 1 1 0 0 0 0 0 0 0 0 0 0 0 0 0 0 0 0 0 0 0 0 0 0 0 0 0 0 0 0 0 0 0 0 1
0 0 0 0 0 0 1 1 1 1 1 1 1 1 1 1 1 0 0 0 0 0 0 0 0 0 1 1 1 1 1 0 0 0 0 0 0 0 0 0 1 1 1
0 0 0 0 0 0 0 1 1 1 1 1 1 1 1 1 1 0 0 0 0 0 0 0 0 1 1 1 1 1 1 1 0 0 0 1 1 1 1 1 1 1 1
1 1 0 0 0 0 0 1 1 1 1 1 1 1 1 1 1 1 1 1 1 1 1 1 1 1 1 1 1 1 1 1 1 1 1 1 1 1 1 1 1 1 1
1 1 1 1 1 1 1 1 1 1 1 1 1 1 1 1 1 1 1 1 1 1 1 1 1 1 1 1 1 1 1 1 1 1 1 1 1 1 1 1 1 1 1
1 1 1 1 1 1 1 1 1 1 1 1 1 1 1 1 1 1 1 1 1 1 1 1 1 1 1 1 1 1 1 1 1 1 1 1 1 1 1 1 1 1 1
1 1 1 1 1 1 2 1 1 1 1 2 2 1 1 1 1 1 1 1 1 2 2 2 2 2 1 1 1 1 1 1 1 1 1 1 1 1 1 1 1 1 1
1 1 1 2 2 2 2 2 2 2 2 2 2 2 2 1 1 2 2 2 2 2 2 2 2 2 2 1 1 1 1 1 1 1 1 1 1 1 1 1 2 2 2
2 2 2 2 2 2 3 3 2 2 2 2 2 2 2 2 2 2 3 3 2 3 3 3 2 2 2 2 1 1 1 1 1 1 1 1 1 1 1 1 2 2 2
2 3 3 3 3 3 3 3 3 2 2 3 3 3 3 3 3 3 3 3 3 3 4 4 3 3 2 2 2 1 1 2 2 1 1 1 1 1 1 1 2 2 2
4 4 4 4 4 4 4 4 3 3 3 4 4 4 4 4 4 4 4 4 4 4 4 4 4 3 3 2 2 2 2 2 2 2 1 1 1 1 1 2 2 2 2
5 6 6 6 6 6 6 5 5 5 5 5 6 5 5 5 5 4 4 3 3 4 4 4 4 3 3 2 2 2 1 1 1 1 1 1 1 1 1 2 2 2 2
6 6 6 7 8 8 9 8 7 7 7 7 7 6 6 5 5 5 5 4 3 3 4 4 4 3 3 2 2 1 1 1 1 1 1 1 1 1 1 1 2 2 2
5 5 6 7 8 9 10 10 9 9 8 8 7 7 6 5 5 6 6 4 4 4 3 3 3 3 2 2 2 1 1 1 1 1 1 1 1 1 1 1 2 2 2
4 5 5 6 7 8 10 10 10 9 9 8 8 7 6 5 5 6 6 4 4 4 3 3 2 2 2 2 2 1 1 1 1 1 1 1 1 1 1 1 1 2 2
4 4 5 6 6 7 8 9 10 9 8 8 8 8 6 5 4 4 4 3 3 3 3 2 2 2 1 1 1 1 1 1 1 1 1 1 1 1 1 1 1 2 2
4 4 5 5 6 6 7 8 8 8 8 8 8 7 5 4 3 3 3 2 2 2 2 1 1 2 2 2 2 2 1 1 1 1 1 1 1 1 1 1 1 2 2
4 4 4 5 6 6 7 7 7 7 7 8 7 6 5 4 3 2 2 2 1 1 1 1 1 1 2 2 2 2 1 1 1 1 1 1 1 1 1 1 1 2 2

GEFSSE_con_maxscp_030.txt.gz
SCP
0 0 0 0 0 0 0 0 0 0 0 0 0 0 0 0 0 0 0 0 0 0 0 0 0 0 0 0 0 0 0 0 0 0 0 0 0 0 0 0 0 0 0
0 0 0 0 0 0 0 0 0 0 0 0 0 0 0 0 0 0 0 0 0 0 0 0 0 0 0 0 0 0 0 0 0 0 0 0 0 0 0 0 0 0 0
0 0 0 0 0 0 0 0 0 0 0 0 0 0 0 0 0 0 0 0 0 0 0 0 0 0 0 0 0 0 0 0 0 0 0 0 0 0 0 0 0 0 0
0 0 0 0 0 0 0 0 0 0 0 0 0 0 0 0 0 0 0 0 0 0 0 0 0 0 0 0 0 0 0 0 0 0 0 0 0 0 0 0 0 0 0
0 0 0 0 0 0 0 0 0 0 0 0 0 0 0 0 0 0 0 0 0 0 0 0 0 0 0 0 0 0 0 0 0 0 0 0 0 0 0 0 0 0 0
0 0 0 0 0 0 0 0 0 0 0 0 0 0 0 0 0 0 0 0 0 0 0 0 0 0 0 0 0 0 0 0 0 0 0 0 0 1 1 0 0 0 0
1 1 0 0 0 0 0 0 0 0 0 0 0 0 0 0 0 0 0 0 0 0 0 0 0 0 0 0 0 0 0 0 0 0 0 0 1 1 1 1 0 0 0
1 1 1 1 1 0 0 0 0 0 0 0 0 0 0 0 0 0 0 0 0 0 0 0 0 0 0 0 0 0 0 0 0 0 0 0 1 1 1 1 1 1 0
2 1 1 1 1 1 0 0 0 0 0 0 0 0 0 0 0 0 0 0 0 0 0 0 0 0 0 0 0 0 0 0 0 0 0 0 1 2 2 1 1 1 1
2 1 1 1 1 1 0 0 0 0 0 0 0 0 0 0 0 1 1 1 1 1 1 1 1 1 1 1 1 1 1 0 0 0 0 1 2 2 2 1 1 1 1
2 2 1 1 1 1 0 1 1 1 1 0 1 1 1 1 1 1 1 1 1 1 1 1 1 1 1 1 1 1 1 1 0 0 1 1 2 2 2 1 1 1 1
2 2 2 2 1 1 1 1 1 1 1 1 1 1 1 1 1 1 2 2 2 2 2 1 1 1 1 1 1 1 1 1 1 1 1 2 2 2 2 1 1 1 1
2 2 2 3 2 1 1 1 1 1 1 1 1 1 1 1 1 1 2 3 3 2 2 2 1 1 1 1 1 1 1 1 1 1 1 2 2 2 2 1 1 1 1
3 3 3 4 4 3 2 2 2 1 2 2 2 2 2 2 2 2 3 3 3 3 3 2 2 2 2 1 1 1 1 1 1 1 2 2 3 3 2 2 1 1 1
3 3 4 6 7 5 4 4 3 3 2 3 3 3 4 4 3 3 4 4 4 3 3 4 4 3 3 2 1 1 1 1 1 2 2 3 3 3 2 2 2 2 1
4 4 5 7 8 7 6 5 5 4 4 4 5 6 6 6 6 6 6 6 5 4 4 5 5 4 3 2 2 2 2 2 2 2 3 3 3 3 3 3 2 2 2
5 5 6 8 9 8 7 6 5 4 5 7 8 8 9 9 9 8 8 8 7 6 6 6 5 5 4 3 3 2 2 2 2 3 3 4 4 3 3 3 3 2 2
7 8 9 9 10 10 8 7 6 5 7 9 10 12 13 12 11 10 10 9 8 8 7 7 6 5 4 4 4 3 3 2 2 3 3 4 4 3 3 3 3 3 2
11 12 13 13 13 12 10 8 7 7 8 10 12 15 16 15 13 12 11 10 9 8 8 7 7 6 5 4 4 4 3 2 2 2 3 3 4 4 4 3 3 3 3
15 15 16 15 15 13 10 8 7 7 8 10 13 15 16 15 15 14 11 9 8 8 7 7 7 7 6 5 4 3 3 2 2 2 3 3 3 3 3 3 3 3 3
15 15 15 14 13 11 10 8 7 7 8 10 12 14 15 15 15 13 10 8 8 8 7 7 7 7 6 5 4 3 2 2 2 2 3 3 3 3 3 3 3 3 3
13 13 12 11 10 9 9 8 7 7 7 8 10 13 14 15 14 12 10 8 7 7 7 7 7 6 6 5 4 3 2 2 2 2 3 3 3 3 2 3 3 3 4
10 10 9 8 8 8 8 8 7 7 7 8 10 12 13 13 12 10 9 8 7 8 8 7 6 5 5 4 4 3 2 2 2 2 2 3 3 3 3 2 3 3 3
7 7 7 7 7 8 8 8 8 7 7 8 10 11 11 10 9 8 8 8 8 8 7 6 5 5 4 3 3 3 2 2 1 1 1 2 2 2 2 2 2 2 2
3 4 4 5 6 7 7 7 7 7 8 8 9 9 9 8 7 8 8 9 9 7 6 5 5 4 4 3 2 2 2 2 1 1 1 1 1 2 2 2 1 2 2
2 2 2 3 5 6 6 7 7 7 7 8 8 8 9 8 7 8 8 9 8 7 5 4 4 4 3 2 2 2 2 2 1 1 1 1 1 1 1 1 1 1 1

GEFSSE_con_maxscp_036.txt.gz
SCP
0 0 1 1 0 0 0 0 0 0 0 0 0 0 0 0 0 0 0 0 0 0 0 0 0 0 0 0 0 0 0 0 0 0 0 0 0 0 0 0 0 0 0
0 0 0 1 0 0 0 0 0 0 0 0 0 0 0 0 0 0 0 0 0 0 0 0 0 0 0 0 0 0 0 0 0 0 0 0 0 0 0 0 0 0 0
0 0 0 1 1 0 0 0 0 0 0 0 0 0 0 0 0 0 0 0 0 0 0 0 0 0 0 0 0 0 0 0 0 0 0 0 0 0 0 0 0 0 0
0 0 0 1 1 0 0 0 0 0 0 0 0 0 0 0 0 0 0 0 0 0 0 0 0 0 0 0 0 0 0 0 0 0 0 0 0 0 0 0 0 0 0
1 1 1 1 1 1 1 0 0 0 0 0 0 0 0 0 0 0 0 0 0 0 0 0 0 0 0 0 0 0 0 0 0 0 0 0 0 0 0 0 0 0 0
1 1 1 1 1 1 1 1 0 0 0 0 0 0 0 0 0 0 0 0 0 0 0 0 0 0 0 0 0 0 0 0 0 0 0 0 0 0 0 0 0 0 0
1 1 1 1 1 1 1 1 1 1 1 0 0 0 0 0 0 0 0 0 0 0 0 0 0 0 0 0 0 0 0 0 0 0 0 0 0 0 1 1 1 0 0
1 1 1 1 1 1 1 1 1 1 1 1 0 0 0 0 0 0 0 0 0 0 0 0 0 0 0 0 0 0 0 0 0 0 0 0 0 0 1 1 1 1 1
1 1 1 1 1 1 1 1 1 1 1 1 1 0 0 0 0 0 0 0 0 0 0 0 0 1 1 1 1 0 0 0 0 0 0 0 0 0 1 1 1 1 1
1 1 1 1 1 1 1 1 1 1 1 1 1 1 1 0 0 0 0 0 0 0 0 0 1 1 1 1 1 1 1 0 0 0 0 0 0 1 1 1 1 1 1
1 1 1 1 1 1 1 1 1 1 1 1 1 1 1 0 0 0 0 0 1 1 1 1 1 1 1 1 1 1 1 1 1 1 0 0 1 1 1 1 1 1 1
1 1 1 1 1 1 1 1 1 1 1 1 1 1 1 1 0 0 0 0 1 1 1 1 1 1 1 1 1 1 1 1 1 1 1 1 1 1 1 2 2 2 2
2 1 1 2 2 1 1 1 1 1 1 1 1 1 1 1 1 1 0 0 1 1 1 1 1 1 1 1 1 1 1 1 1 1 1 1 1 2 2 2 2 2 2
2 2 2 2 2 2 1 1 1 1 1 1 1 1 1 1 1 1 1 1 1 1 1 1 1 1 1 1 1 1 1 1 1 1 1 1 2 2 3 3 3 2 2
4 3 2 2 2 2 2 2 2 2 1 1 1 1 1 1 1 1 1 1 2 2 2 2 2 2 1 1 1 1 1 1 1 1 1 1 2 2 3 3 3 3 3
5 4 3 3 2 3 3 2 2 2 2 2 2 2 2 2 2 2 2 2 3 3 3 2 2 2 2 1 1 1 1 1 1 1 1 1 2 3 3 4 4 3 3
6 6 6 5 4 4 4 4 4 4 3 3 2 2 3 3 3 3 3 3 4 4 4 3 2 2 2 2 1 1 1 1 1 1 2 2 2 2 3 4 5 8 13
7 8 8 7 5 4 4 5 5 4 4 3 3 3 4 4 5 5 5 4 4 4 4 3 3 2 2 2 2 1 1 1 1 1 2 2 2 2 2 3 4 11 23
7 8 8 7 6 5 5 5 5 4 4 3 3 3 4 5 6 6 6 5 5 4 4 3 3 3 2 2 2 2 2 1 1 1 1 1 1 1 2 2 3 8 13
7 7 7 6 6 5 5 5 5 4 4 4 3 3 3 4 5 6 7 7 7 5 4 3 3 3 3 2 2 2 2 2 1 1 1 1 1 1 1 2 2 2 3
6 6 5 5 5 5 6 6 6 5 5 4 4 4 3 3 4 6 7 8 8 6 4 4 4 3 3 3 3 2 2 2 1 1 1 1 1 1 1 1 2 2 2
5 5 4 4 4 4 5 5 5 5 5 5 4 4 3 3 4 5 6 6 7 6 4 4 5 4 4 3 3 2 2 1 1 1 1 1 1 1 1 1 1 1 1
4 3 3 3 3 3 3 4 4 4 4 4 4 4 4 3 3 4 4 4 5 5 4 4 5 5 4 4 3 2 1 1 1 1 1 1 1 1 1 1 1 1 1
2 3 3 2 2 2 2 3 3 3 3 3 3 3 3 3 3 3 4 4 5 5 4 4 5 5 5 4 3 2 2 1 1 1 1 0 0 0 0 1 1 0 1
2 2 3 3 3 2 2 2 3 2 2 2 2 2 3 3 3 3 4 4 4 4 4 4 5 5 5 4 3 2 1 1 1 1 1 0 0 0 0 0 0 0 0
2 3 3 3 3 2 2 2 2 2 2 1 1 1 2 2 3 3 4 4 4 4 5 4 5 5 5 4 3 2 1 1 1 1 0 0 0 0 0 0 0 0 0

GEFSSE_con_maxscp_042.txt.gz
SCP
0 0 1 1 1 0 1 1 1 1 1 1 1 1 1 1 0 0 0 0 0 0 0 0 0 0 0 0 0 0 0 0 0 0 0 0 0 0 0 0 0 0 0
0 0 0 1 1 1 1 1 1 1 1 1 1 1 1 1 0 0 0 0 0 0 0 0 0 0 0 0 0 0 0 0 0 0 0 0 0 0 0 0 0 0 0
0 0 0 1 1 1 1 1 1 1 1 1 1 0 0 0 0 0 0 0 0 0 0 0 0 0 0 0 0 0 0 0 0 0 0 0 0 0 0 0 0 0 0
0 0 0 1 1 1 1 1 1 1 1 1 0 0 0 0 0 0 0 0 0 0 0 0 0 0 0 0 0 0 0 0 0 0 0 0 0 0 0 0 0 0 0
0 0 0 1 1 1 1 1 1 1 1 1 0 0 0 0 0 0 0 0 0 0 0 0 0 0 0 0 0 0 0 0 0 0 0 0 0 0 0 0 0 0 0
0 0 0 1 1 1 1 1 1 1 1 1 0 0 0 0 0 0 0 0 0 0 0 0 0 0 0 0 0 0 0 0 0 0 0 0 0 0 0 0 0 0 0
0 0 1 1 1 1 1 1 1 1 1 1 0 0 0 0 0 0 0 0 0 0 0 0 0 0 0 0 0 0 0 0 0 0 0 0 0 0 0 0 0 0 0
0 1 1 1 1 1 1 1 1 1 1 1 1 1 0 0 0 0 0 0 0 0 0 0 0 0 0 0 0 0 0 0 0 0 0 0 0 0 0 0 0 0 0
0 1 1 1 1 1 1 1 1 1 1 1 1 1 1 0 0 0 0 0 0 0 0 0 0 0 0 0 0 0 0 0 0 0 0 0 0 0 0 0 0 0 0
0 1 1 1 1 1 1 1 1 2 2 2 2 2 1 1 1 0 0 0 0 0 0 0 0 0 0 0 0 0 0 0 0 0 0 0 0 0 0 0 0 0 0
0 0 1 1 1 1 1 1 1 2 2 2 2 3 2 2 1 1 0 0 0 0 0 0 0 0 0 0 0 0 0 0 0 0 0 0 0 0 0 0 0 0 0
0 1 1 1 1 1 1 1 1 2 2 2 2 3 3 3 2 1 1 1 0 0 0 0 0 1 0 1 1 0 0 1 1 0 0 0 0 0 0 0 0 0 1
1 1 1 1 1 1 1 2 2 2 2 2 2 3 3 3 2 2 1 1 1 1 1 1 1 1 1 1 1 1 1 1 1 1 0 0 1 1 1 1 1 1 1
1 1 1 1 1 2 2 2 2 2 2 2 2 2 3 3 2 2 2 1 1 1 1 1 1 1 1 1 1 1 5 8 5 1 0 0 1 1 1 1 1 1 1
1 1 1 2 2 2 2 2 2 2 2 2 2 2 2 2 2 2 2 2 1 1 1 1 2 2 2 2 2 1 8 14 8 1 1 1 1 1 1 1 1 1 1
2 1 2 2 2 2 2 2 2 2 2 2 2 2 2 2 2 2 2 2 2 2 2 2 2 2 2 2 2 2 5 8 5 1 1 1 1 1 1 1 1 1 1
2 2 2 2 2 2 3 2 2 2 2 2 2 2 2 2 2 2 2 2 2 2 3 3 3 3 3 2 2 2 1 1 1 1 1 1 1 1 1 1 1 2 2
3 2 2 2 2 3 3 3 2 2 2 2 2 2 2 2 2 2 2 2 3 3 3 4 4 4 3 3 2 2 1 1 1 1 1 1 1 1 1 1 1 2 2
3 2 2 2 3 3 3 3 3 2 2 2 2 2 2 2 2 2 2 3 3 3 4 4 4 4 3 3 3 2 2 2 2 1 1 1 1 1 1 1 1 2 2
3 2 2 3 3 3 3 3 2 2 2 2 2 2 2 2 2 3 3 3 3 4 4 4 4 4 3 3 3 2 2 2 2 2 2 2 1 1 1 1 2 2 2
2 2 2 2 3 3 3 2 2 2 2 2 2 2 2 2 3 3 4 3 3 4 4 4 4 4 4 4 3 2 2 2 2 2 2 2 1 1 1 1 2 2 2
2 2 2 2 2 2 3 2 2 2 2 2 2 2 2 2 3 3 3 4 4 4 4 4 4 4 4 4 3 3 2 2 2 2 2 2 1 1 1 1 1 1 1
1 1 1 1 2 2 2 2 2 2 2 2 2 2 2 2 2 2 3 3 4 4 4 4 4 4 4 3 3 3 3 2 2 1 1 1 1 1 1 1 1 1 1
1 1 1 1 1 1 2 2 2 1 1 1 1 1 1 1 1 2 2 2 3 3 3 3 4 4 4 4 3 3 3 2 2 1 1 1 1 0 1 1 1 1 1
0 1 1 1 1 1 1 1 1 1 1 1 0 0 0 0 1 1 1 2 2 2 3 3 3 4 4 4 3 3 3 2 2 1 1 1 0 0 0 1 1 1 1
0 1 1 1 1 1 1 1 1 1 1 1 0 0 0 0 0 1 1 1 2 2 2 3 3 3 4 4 4 3 3 2 2 1 1 1 0 0 0 1 1 1 1